Le nostre stazioni meteo in Italia

Pubblicità
Il mio iltempo24.it
Perugia, Italia (16181): Temperatura & dewpoint: 15.09.2018 05:00:00 - 21.09.2018 05:00:00 (CEST)Perugia, Italia (16181): velocità del vento: 15.09.2018 05:00:00 - 21.09.2018 05:00:00 (CEST)Perugia, Italia (16181): direzione del vento: 15.09.2018 05:00:00 - 21.09.2018 05:00:00 (CEST)Perugia, Italia (16181): visibility: 15.09.2018 05:00:00 - 21.09.2018 05:00:00 (CEST)
Data & Tempo tt [°C] td [°C] ff [km/h] ff [kn] dd vv [km]
21.09.2018 05:00:00 - - - - - -
21.09.2018 04:00:00 17,0 16,0 5 3 N 10
21.09.2018 03:00:00 18,0 16,0 2 1 - 10
21.09.2018 02:00:00 18,0 16,0 8 4 NNE 10
21.09.2018 01:00:00 20,0 16,0 9 5 NNO 10
21.09.2018 00:00:00 21,0 16,0 15 8 NNO 10
20.09.2018 23:00:00 20,0 17,0 11 6 N 10
20.09.2018 22:00:00 21,0 17,0 11 6 N 10
20.09.2018 21:00:00 22,0 17,0 13 7 N 10
20.09.2018 20:00:00 23,0 17,0 13 7 NNE 10
20.09.2018 19:00:00 25,0 17,0 16 9 NNE 10
20.09.2018 18:00:00 26,0 17,0 26 14 NNE 10
20.09.2018 17:00:00 27,0 16,0 21 11 ENE 10
20.09.2018 16:00:00 27,0 15,0 18 10 ENE 10
20.09.2018 15:00:00 26,0 17,0 16 9 NNE 10
20.09.2018 14:00:00 25,0 17,0 15 8 N 10
20.09.2018 13:00:00 25,0 16,0 18 10 NNE 10
20.09.2018 12:00:00 25,0 16,0 21 11 NNE 10
20.09.2018 11:00:00 24,0 16,0 18 10 NNE 10
20.09.2018 10:00:00 23,0 16,0 15 8 N 10
20.09.2018 09:00:00 20,0 18,0 2 1 - 10
20.09.2018 08:00:00 19,0 18,0 5 3 SSE 10
20.09.2018 07:00:00 20,0 17,0 2 1 - 10
20.09.2018 06:00:00 19,0 16,0 8 4 E 10
20.09.2018 05:00:00 20,0 16,0 9 5 N 10
20.09.2018 04:00:00 19,0 17,0 4 2 - 10
20.09.2018 03:00:00 19,0 17,0 4 2 - 10
20.09.2018 02:00:00 20,0 17,0 9 5 N 10
20.09.2018 01:00:00 20,0 18,0 4 2 - 10
20.09.2018 00:00:00 20,0 18,0 13 7 N 10
19.09.2018 23:00:00 21,0 18,0 4 2 - 10
19.09.2018 22:00:00 21,0 18,0 4 2 - 10
19.09.2018 21:00:00 21,0 17,0 5 3 O 10
19.09.2018 20:00:00 22,0 18,0 4 2 - 10
19.09.2018 19:00:00 23,0 18,0 11 6 ESE 10
19.09.2018 18:00:00 24,0 19,0 16 9 E 10
19.09.2018 17:00:00 28,0 16,0 18 10 ENE 10
19.09.2018 16:00:00 29,0 18,0 22 12 NNE 10
19.09.2018 15:00:00 29,0 16,0 15 8 NNE 10
19.09.2018 14:00:00 28,0 17,0 15 8 N 10
19.09.2018 13:00:00 26,0 19,0 5 3 - 10
19.09.2018 12:00:00 23,0 18,0 4 2 - 10
19.09.2018 11:00:00 22,0 18,0 4 2 - 9
19.09.2018 10:00:00 20,0 18,0 8 4 NNO 8
19.09.2018 09:00:00 18,0 17,0 11 6 N 8
19.09.2018 08:00:00 17,0 17,0 9 5 NO 10
19.09.2018 07:00:00 17,0 16,0 9 5 NNO 10
19.09.2018 06:00:00 17,0 17,0 5 3 NNE 8
19.09.2018 05:00:00 18,0 17,0 5 3 NNO 10
19.09.2018 04:00:00 18,0 17,0 5 3 NO 10
19.09.2018 03:00:00 18,0 17,0 8 4 N 10
19.09.2018 02:00:00 19,0 18,0 5 3 NE 10
19.09.2018 01:00:00 19,0 18,0 8 4 NNE 10
19.09.2018 00:00:00 20,0 19,0 5 3 N 10
18.09.2018 23:00:00 20,0 19,0 8 4 SE 10
18.09.2018 22:00:00 20,0 19,0 11 6 SE 10
18.09.2018 21:00:00 21,0 19,0 9 5 SE 10
18.09.2018 20:00:00 21,0 17,0 16 9 ESE 8
18.09.2018 19:00:00 26,0 17,0 11 6 ESE 10
18.09.2018 18:00:00 28,0 17,0 5 3 - 10
18.09.2018 17:00:00 29,0 15,0 11 6 O 10
18.09.2018 16:00:00 29,0 15,0 8 4 - 10
18.09.2018 15:00:00 28,0 17,0 5 3 - 10
18.09.2018 14:00:00 27,0 18,0 4 2 - 10
18.09.2018 13:00:00 26,0 18,0 5 3 - 10
18.09.2018 12:00:00 24,0 17,0 5 3 O 10
18.09.2018 11:00:00 21,0 18,0 8 4 ONO 10
18.09.2018 10:00:00 21,0 17,0 5 3 N 10
18.09.2018 09:00:00 18,0 17,0 11 6 N 10
18.09.2018 08:00:00 17,0 16,0 9 5 N 10
18.09.2018 07:00:00 17,0 16,0 8 4 NNO 10
18.09.2018 06:00:00 17,0 16,0 8 4 N 10
18.09.2018 05:00:00 17,0 16,0 4 2 NE 10
18.09.2018 04:00:00 17,0 16,0 8 4 N 10
18.09.2018 03:00:00 17,0 16,0 8 4 NO 10
18.09.2018 02:00:00 18,0 17,0 9 5 NNE 10
18.09.2018 01:00:00 18,0 17,0 9 5 NNO 10
18.09.2018 00:00:00 18,0 17,0 9 5 NNO 10
17.09.2018 23:00:00 - - - - - -
17.09.2018 22:00:00 - - - - - -
17.09.2018 21:00:00 19,0 18,0 5 3 E 10
17.09.2018 20:00:00 19,0 17,0 8 4 NNO 10
17.09.2018 19:00:00 21,0 17,0 13 7 ENE 10
17.09.2018 18:00:00 22,0 18,0 15 8 ESE 10
17.09.2018 17:00:00 29,0 15,0 9 5 ONO 10
17.09.2018 16:00:00 30,0 14,0 11 6 OSO 10
17.09.2018 15:00:00 30,0 14,0 15 8 SO 10
17.09.2018 14:00:00 30,0 16,0 4 2 - 10
17.09.2018 13:00:00 28,0 17,0 5 3 - 10
17.09.2018 12:00:00 26,0 18,0 8 4 SSO 10
17.09.2018 11:00:00 25,0 18,0 4 2 - 10
17.09.2018 10:00:00 23,0 18,0 4 2 - 10
17.09.2018 09:00:00 20,0 17,0 9 5 NNO 10
17.09.2018 08:00:00 18,0 17,0 5 3 NO 10
17.09.2018 07:00:00 18,0 16,0 11 6 N 10
17.09.2018 06:00:00 18,0 16,0 8 4 N 10
17.09.2018 05:00:00 18,0 16,0 8 4 N 10
17.09.2018 04:00:00 18,0 16,0 4 2 - 10
17.09.2018 03:00:00 19,0 17,0 4 2 - 10
17.09.2018 02:00:00 20,0 17,0 9 5 N 10
17.09.2018 01:00:00 20,0 17,0 11 6 NNE 10
17.09.2018 00:00:00 22,0 17,0 4 2 - 10
16.09.2018 23:00:00 24,0 18,0 9 5 SSO 10
16.09.2018 22:00:00 26,0 18,0 9 5 SSO 10
16.09.2018 21:00:00 26,0 17,0 11 6 O 10
16.09.2018 20:00:00 27,0 17,0 11 6 ONO 10
16.09.2018 19:00:00 28,0 17,0 11 6 O 10
16.09.2018 18:00:00 29,0 15,0 16 9 OSO 10
16.09.2018 17:00:00 31,0 14,0 21 11 SO 10
16.09.2018 16:00:00 32,0 12,0 11 6 O 10
16.09.2018 15:00:00 31,0 15,0 5 3 - 10
16.09.2018 14:00:00 30,0 15,0 8 4 - 10
16.09.2018 13:00:00 29,0 17,0 2 1 - 10
16.09.2018 12:00:00 27,0 18,0 5 3 - 10
16.09.2018 11:00:00 24,0 18,0 4 2 - 10
16.09.2018 10:00:00 23,0 17,0 4 2 - 10
16.09.2018 09:00:00 20,0 17,0 5 3 NNO 10
16.09.2018 08:00:00 18,0 16,0 9 5 N 10
16.09.2018 07:00:00 18,0 16,0 8 4 N 10
16.09.2018 06:00:00 18,0 17,0 9 5 NNO 10
16.09.2018 05:00:00 18,0 17,0 8 4 NO 10
16.09.2018 04:00:00 19,0 17,0 9 5 N 10
16.09.2018 03:00:00 19,0 17,0 9 5 N 10
16.09.2018 02:00:00 20,0 18,0 9 5 NNO 10
16.09.2018 01:00:00 21,0 18,0 13 7 NNO 10
16.09.2018 00:00:00 22,0 18,0 8 4 NO 10
15.09.2018 23:00:00 23,0 17,0 5 3 NNO 10
15.09.2018 22:00:00 25,0 17,0 8 4 NNO 10
15.09.2018 21:00:00 25,0 17,0 15 8 NNO 10
15.09.2018 20:00:00 27,0 13,0 5 3 ONO 10
15.09.2018 19:00:00 29,0 13,0 11 6 ONO 10
15.09.2018 18:00:00 30,0 12,0 11 6 ONO 10
15.09.2018 17:00:00 30,0 11,0 9 5 ONO 10
15.09.2018 16:00:00 30,0 12,0 9 5 NO 10
15.09.2018 15:00:00 30,0 13,0 4 2 - 10
15.09.2018 14:00:00 29,0 13,0 8 4 OSO 10
15.09.2018 13:00:00 28,0 14,0 8 4 ONO 10
15.09.2018 12:00:00 26,0 16,0 5 3 - 10
15.09.2018 11:00:00 24,0 16,0 2 1 - 10
15.09.2018 10:00:00 23,0 16,0 2 1 - 10
15.09.2018 09:00:00 19,0 15,0 5 3 N 10
15.09.2018 08:00:00 17,0 15,0 8 4 N 10
15.09.2018 07:00:00 16,0 13,0 4 2 - 10
15.09.2018 06:00:00 16,0 14,0 2 1 - 10
15.09.2018 05:00:00 17,0 14,0 2 1 - 10

tt = Temperatura
td = dewpoint
ff = velocità del vento
dd = direzione del vento
vv = visibility

Stazioni seguenti

WeatherPro
AMSI
MeteoEarth